Weather observations for the past three days for
Cecil Airport
Imperial (Metric)
Date Time (edt) Wind (mph) Vis. (mi.) Weather Sky Cond. Temperature (ºF) Relative Humidity Wind Chill (°F) Heat Index (°F) Pressure Precipitation (in)
Air Dwpt 6 hour altimeter (in) sea level (mb) 1 hr 3 hr 6 hr
Max. Min.
13 16:50 NE 12 10.00 Partly Cloudy SCT042 93.2 68 44% 98 29.87 0.0
13 15:50 E 12 G 22 10.00 Partly Cloudy SCT042 93.2 68 44% 98 29.88 0.0
13 14:50 E 15 10.00 Partly Cloudy SCT043 93.2 71.6 50% 101 29.89 0.0
13 13:50 E 12 10.00 Mostly Cloudy BKN047 91.4 71.6 52% 99 29.89 0.0
13 12:50 N 14 10.00 Mostly Cloudy BKN048 96.8 66.2 37% 100 29.89 0.0
13 11:50 NE 12 10.00 Mostly Cloudy BKN036 93.2 69.8 47% 99 29.9 0.0
13 10:50 NE 12 10.00 Mostly Cloudy BKN026 91.4 73.4 56% 100 29.91 0.0
13 09:50 NE 8 10.00 Mostly Cloudy BKN021 89.6 75.2 63% 100 29.91 0.0
13 08:50 N 6 10.00 Mostly Cloudy BKN014 86 77 75% 97 29.91 0.0
13 07:50 N 6 6.00 Fog/Mist FEW005 78.8 78.8 100% 83 29.89 0.0
13 06:50 N 6 6.00 Fog/Mist SCT085 73.4 73.4 100% 29.87 0.0
13 06:35 N 3 0.75 Fog/Mist BKN085 73.4 73.4 100% 29.87 0.0
13 06:15 Calm 0.25 Fog VV002 73.4 73.4 100% 29.87 0.0
13 05:55 Calm 1.00 Fog/Mist CLR 73.4 73.4 100% 29.87 0.0
13 05:35 Calm 7.00 Fair CLR 75.2 75.2 100% 73 29.86 0.0
13 05:15 N 3 10.00 Fair CLR 75.2 75.2 100% 73 29.86 0.0
13 04:55 NE 3 10.00 A Few Clouds FEW016 75.2 75.2 100% 73 29.86 0.0
13 04:35 N 5 9.00 Partly Cloudy SCT015 SCT025 75.2 75.2 100% 73 29.86 0.0
13 04:15 N 8 6.00 Fog/Mist FEW005 75.2 75.2 100% 73 29.86 0.0
13 03:55 N 6 10.00 Fair CLR 75.2 75.2 100% 73 29.86 0.0
13 03:35 Calm 10.00 Fair CLR 75.2 75.2 100% 73 29.85 0.0
13 03:15 Calm 10.00 Fair CLR 75.2 75.2 100% 73 29.86 0.0
13 02:55 N 6 10.00 Fair CLR 77 77 100% 78 29.86 0.0
13 02:35 Calm 10.00 Fair CLR 75.2 75.2 100% 73 29.86 0.0
13 02:15 Calm 10.00 Fair CLR 75.2 75.2 100% 73 29.87 0.0
13 01:55 Calm 10.00 Fair CLR 77 75.2 94% 78 29.88 0.0
13 01:35 N 5 10.00 Fair CLR 77 75.2 94% 78 29.89 0.0
13 01:15 N 3 10.00 Partly Cloudy FEW029 SCT035 77 75.2 94% 78 29.9 0.0
13 00:55 Calm 10.00 Partly Cloudy FEW020 SCT030 77 75.2 94% 78 29.91 0.0
13 00:35 Calm 10.00 Partly Cloudy SCT020 78.8 75.2 89% 82 29.9 0.0
13 00:15 Vrbl 5 10.00 Fair CLR 78.8 75.2 89% 82 29.9 0.0
12 23:55 NE 5 10.00 Fair CLR 78.8 75.2 89% 82 29.9 0.0
12 23:35 Vrbl 5 10.00 Fair CLR 78.8 73.4 84% 82 29.9 0.0
12 23:15 NE 6 10.00 Fair CLR 78.8 73.4 84% 82 29.9 0.0
12 22:50 E 7 10.00 Mostly Cloudy SCT026 BKN046 80.6 73.4 79% 85 29.9 0.0
12 21:50 E 7 10.00 Mostly Cloudy SCT026 BKN046 80.6 73.4 79% 85 29.9 0.0
12 20:50 E 12 10.00 Partly Cloudy SCT026 82.4 75.2 79% 89 29.91 0.0
12 19:50 E 10 G 20 10.00 Partly Cloudy SCT026 84.2 73.4 70% 91 29.89 0.0
12 18:50 NE 7 G 20 10.00 Mostly Cloudy BKN028 84.2 73.4 70% 91 29.91 0.0
12 17:50 NE 15 G 26 10.00 Mostly Cloudy BKN034 89.6 71.6 55% 96 29.9 0.0
12 16:50 E 15 G 28 10.00 Mostly Cloudy BKN036 89.6 73.4 59% 98 29.9 0.0
12 15:50 E 15 G 28 10.00 Mostly Cloudy BKN034 89.6 73.4 59% 98 29.91 0.0
12 14:50 E 14 10.00 Partly Cloudy SCT036 95 71.6 47% 103 29.91 0.0
12 13:50 E 13 10.00 Mostly Cloudy SCT036 BKN045 93.2 71.6 50% 101 29.91 0.0
12 12:50 NE 14 10.00 Mostly Cloudy SCT038 BKN044 95 71.6 47% 103 29.91 0.0
12 11:50 NE 14 10.00 Mostly Cloudy BKN035 93.2 71.6 50% 101 29.91 0.0
12 10:50 NE 8 10.00 Mostly Cloudy BKN027 91.4 75.2 59% 103 29.92 0.0
12 09:50 NE 8 10.00 Mostly Cloudy BKN019 87.8 75.2 66% 98 29.92 0.0
12 08:50 Vrbl 6 10.00 Mostly Cloudy BKN015 82.4 77 84% 91 29.92 0.0
12 07:50 Vrbl 5 10.00 Partly Cloudy SCT013 78.8 78.8 100% 83 29.91 0.0
12 06:50 Vrbl 5 10.00 Overcast BKN008 OVC014 71.6 71.6 100% 29.9 0.0
12 06:35 Calm 6.00 Fog/Mist SCT008 BKN028 OVC080 71.6 71.6 100% 29.9 0.0
12 06:15 Calm 0.25 Fog BKN080 71.6 71.6 100% 29.89 0.0
12 05:55 Calm 0.50 Fog/Mist VV005 71.6 71.6 100% 29.89 0.0
12 05:35 Calm 3.00 Fog/Mist BKN080 71.6 71.6 100% 29.89 0.0
12 05:15 Calm 9.00 Mostly Cloudy BKN080 73.4 73.4 100% 29.88 0.0
12 04:55 Calm 2.50 Fog/Mist FEW080 71.6 71.6 100% 29.88 0.0
12 04:35 Calm 4.00 Fog/Mist CLR 71.6 71.6 100% 29.88 0.0
12 04:15 Calm 4.00 Fog/Mist FEW012 FEW023 73.4 73.4 100% 29.87 0.0
12 03:55 Calm 10.00 Partly Cloudy SCT012 SCT021 71.6 71.6 100% 29.87 0.0
12 03:35 Calm 2.00 Fog/Mist FEW012 73.4 73.4 100% 29.87 0.0
12 03:15 Calm 10.00 Fair CLR 73.4 73.4 100% 29.87 0.0
12 02:55 Calm 10.00 Fair CLR 73.4 73.4 100% 29.87 0.0
12 02:35 Calm 10.00 A Few Clouds FEW012 73.4 73.4 100% 29.87 0.0
12 02:15 Calm 10.00 Fair CLR 75.2 75.2 100% 73 29.88 0.0
12 01:55 Calm 10.00 A Few Clouds FEW012 77 75.2 94% 78 29.89 0.0
12 01:35 Calm 10.00 A Few Clouds FEW011 FEW070 FEW080 77 75.2 94% 78 29.89 0.0
12 01:15 Calm 10.00 Mostly Cloudy BKN070 77 75.2 94% 78 29.9 0.0
12 00:55 Calm 10.00 Overcast BKN060 OVC070 78.8 75.2 89% 82 29.9 0.0
12 00:35 Calm 10.00 Overcast OVC060 78.8 75.2 89% 82 29.9 0.0
12 00:15 Calm 10.00 Mostly Cloudy SCT060 BKN075 78.8 75.2 89% 82 29.89 0.0
11 23:55 SE 3 10.00 Overcast BKN060 OVC075 80.6 75.2 84% 86 29.89 0.0
11 23:35 S 3 10.00 Overcast BKN060 OVC070 80.6 75.2 84% 86 29.9 0.0
11 23:15 Calm 10.00 Overcast BKN055 OVC075 80.6 73.4 79% 85 29.9 0.0
11 22:50 SE 5 10.00 Overcast BKN060 OVC070 80.6 73.4 79% 85 29.88 0.0
11 21:50 SE 5 10.00 Mostly Cloudy SCT050 BKN070 82.4 75.2 79% 89 29.86 0.0
11 20:50 SE 7 10.00 Mostly Cloudy SCT040 BKN065 82.4 75.2 79% 89 29.84 0.0
11 19:50 SE 9 G 17 10.00 Mostly Cloudy BKN060 86 75.2 70% 95 29.84 0.0
11 18:50 E 9 G 17 10.00 Mostly Cloudy BKN075 87.8 75.2 66% 98 29.82 0.0
11 17:50 E 14 10.00 Partly Cloudy SCT045 93.2 73.4 53% 103 29.81 0.0
11 16:50 E 9 10.00 Partly Cloudy SCT045 93.2 73.4 53% 103 29.81 0.0
11 15:50 NE 12 10.00 Mostly Cloudy BKN065 93.2 73.4 53% 103 29.8 0.0
11 14:50 NE 9 10.00 Mostly Cloudy BKN055 98.6 68 37% 104 29.82 0.0
11 13:50 Vrbl 5 10.00 Mostly Cloudy BKN060 98.6 62.6 31% 100 29.83 0.0
11 12:50 Vrbl 5 10.00 Mostly Cloudy BKN050 96.8 68 39% 102 29.84 0.0
11 11:50 Vrbl 5 10.00 Mostly Cloudy BKN038 93.2 71.6 50% 101 29.85 0.0
11 10:50 Vrbl 5 10.00 Fair CLR 93.2 73.4 53% 103 29.86 0.0
11 09:50 W 8 10.00 Fair CLR 84.2 75.2 74% 92 29.87 0.0
11 08:50 W 8 10.00 Partly Cloudy SCT030 80.6 75.2 84% 86 29.86 0.0
11 07:50 W 7 10.00 Mostly Cloudy BKN020 77 73.4 89% 78 29.85 0.0
11 06:50 SW 5 10.00 Fair CLR 75.2 73.4 94% 74 29.83 0.0
11 06:35 SW 5 10.00 A Few Clouds FEW036 75.2 73.4 94% 74 29.83 0.0
11 06:15 SW 6 10.00 Mostly Cloudy BKN034 BKN039 75.2 73.4 94% 74 29.84 0.0
11 05:55 SW 7 10.00 Overcast OVC035 75.2 73.4 94% 74 29.83 0.0
11 05:35 SW 5 10.00 Overcast BKN034 OVC040 75.2 73.4 94% 74 29.84 0.0
11 05:15 S 5 10.00 Overcast OVC036 75.2 73.4 94% 74 29.84 0.0
11 04:55 S 7 10.00 Overcast OVC040 75.2 73.4 94% 74 29.84 0.0
11 04:35 S 7 10.00 Mostly Cloudy BKN037 75.2 73.4 94% 74 29.84 0.0
11 04:15 S 7 10.00 Fair CLR 73.4 73.4 100% 29.83 0.0
11 03:55 S 6 10.00 Fair CLR 73.4 71.6 94% 29.83 0.0
11 03:35 SW 5 10.00 Fair CLR 73.4 71.6 94% 29.83 0.0
11 03:15 S 6 10.00 Fair CLR 73.4 71.6 94% 29.83 0.0
11 02:55 SW 7 10.00 A Few Clouds FEW031 73.4 71.6 94% 29.83 0.0
11 02:35 SW 6 10.00 A Few Clouds FEW032 73.4 69.8 89% 29.83 0.0
11 02:15 Calm 10.00 Fair CLR 71.6 68 88% 29.83 0.0
11 01:55 Calm 10.00 Fair CLR 73.4 68 83% 29.83 0.0
11 01:35 SW 3 10.00 Fair CLR 71.6 66.2 83% 29.82 0.0
11 01:15 Calm 10.00 Fair CLR 73.4 66.2 78% 29.82 0.0
11 00:55 S 3 10.00 Fair CLR 73.4 64.4 74% 29.83 0.0
11 00:35 SW 5 10.00 Fair CLR 73.4 66.2 78% 29.83 0.0
11 00:15 Calm 10.00 Fair CLR 75.2 64.4 69% 77 29.82 0.0
10 23:55 Calm 10.00 Fair CLR 77 64.4 65% 79 29.82 0.0
10 23:35 SW 5 10.00 Fair CLR 77 64.4 65% 79 29.82 0.0
10 23:15 Calm 10.00 Fair CLR 75.2 64.4 69% 77 29.82 0.0
10 22:50 Vrbl 5 10.00 Fair CLR 77 62.6 61% 79 29.82 0.0
10 21:50 SW 8 10.00 Fair CLR 82.4 60.8 48% 83 29.78 0.0
10 20:50 SW 8 10.00 Fair CLR 86 60.8 43% 86 29.77 0.0
10 19:50 W 7 10.00 Fair CLR 89.6 60.8 38% 90 29.76 0.0
10 18:50 W 12 10.00 Fair CLR 95 59 30% 94 29.75 0.0
10 17:50 W 14 10.00 A Few Clouds FEW080 96.8 60.8 30% 97 29.75 0.0
Date Time (edt) Wind (mph) Vis. (mi.) Weather Sky Cond. Air Dwpt Max. Min. Relative Humidity Wind Chill (°F) Heat Index (°F) altimeter (in) sea level (mb) 1 hr 3 hr 6 hr
6 hour
Temperature (ºF) Pressure Precipitation (in)